Location: Prescott
(34.5400°N, 112.4680°W)
Time: 02:13:38
(UTC-07:00)

Amateur Radio Satellites - All Passes

Search period start: 02 September 2014 01:43
Search period end: 03 September 2014 01:43
Location: Prescott, 34.5400°N, 112.4680°W

Satellite Date Start Highest point End Downlink Frequencies (MHz)
Time Altitude Azimuth
Oscar 16 02 Sep 01:57:01 02:02:13 71° 102° (ESE) 02:07:23 437.025 USB, Beacon 2401.1428
SO-50 02 Sep 01:58:56 02:02:45 29° 112° (ESE) 02:06:38 436.795 FM
ITAMSAT 1 02 Sep 02:00:09 02:04:38 29° 97° (E) 02:09:06 435.822 SSB
Uribyol 2 02 Sep 02:09:11 02:14:02 39° 99° (E) 02:18:52 436.500 FM
TMSAT-1 02 Sep 02:23:27 02:26:28 15° 93° (E) 02:29:28 436.925 FM
JAS-1B 02 Sep 02:26:34 02:32:42 47° 99° (E) 02:38:11 435.800 - 435.900 CW/SSB
AO-27 02 Sep 02:29:22 02:34:30 60° 101° (E) 02:39:37 436.795 MHz FM
Sapphire 02 Sep 02:32:28 02:37:28 39° 250° (WSW) 02:42:27 437.095 MHz 1200 baud AX-25 AFSK
OPAL 02 Sep 02:57:37 03:00:33 16° 62° (ENE) 03:03:31 ?
Oscar 19 02 Sep 03:01:35 03:05:56 28° 291° (WNW) 03:10:16 437.125 CW, 437.150 USB
PCSat 02 Sep 03:02:43 03:06:26 19° 255° (WSW) 03:10:08 145.825 MHz
AO-Echo 02 Sep 03:08:42 03:13:09 44° 287° (WNW) 03:17:40 ?
Gurwin Techsat 1B 02 Sep 03:11:30 03:16:48 68° 102° (ESE) 03:22:04 435.225 FM
Oscar 16 02 Sep 03:38:53 03:40:54 12° 297° (WNW) 03:42:56 437.025 USB, Beacon 2401.1428
SO-50 02 Sep 03:39:33 03:43:15 25° 308° (NW) 03:47:02 436.795 FM
ITAMSAT 1 02 Sep 03:39:37 03:44:00 28° 291° (WNW) 03:48:22 435.822 SSB
UOSAT-12 02 Sep 03:44:28 03:48:19 27° 111° (ESE) 03:52:14 437.025 FM, 437.400 FM
Uribyol 2 02 Sep 03:49:19 03:53:13 22° 293° (WNW) 03:57:07 436.500 FM
TMSAT-1 02 Sep 04:01:30 04:06:39 54° 287° (WNW) 04:11:48 436.925 FM
Uosat F 02 Sep 04:01:48 04:05:52 25° 96° (E) 04:09:55 435.120 FM
AO-27 02 Sep 04:10:43 04:13:28 15° 296° (WNW) 04:16:12 436.795 MHz FM
JAS-1B 02 Sep 04:18:16 04:22:49 21° 299° (WNW) 04:27:01 435.800 - 435.900 CW/SSB
AO-7 02 Sep 04:30:03 04:38:07 54° 103° (ESE) 04:46:08 29.400 - 29.500 MHz
OPAL 02 Sep 04:33:58 04:38:54 56° 257° (WSW) 04:43:57 ?
Gurwin Techsat 1B 02 Sep 04:53:42 04:56:08 13° 297° (WNW) 04:58:33 435.225 FM
JAS-2 02 Sep 05:18:34 05:21:53 16° 95° (E) 05:25:21 435.800 - 435.900 CW/SSB, 435.910 FM
UOSAT-12 02 Sep 05:24:23 05:28:21 28° 307° (NW) 05:32:25 437.025 FM, 437.400 FM
Uosat F 02 Sep 05:40:14 05:44:36 31° 290° (WNW) 05:48:58 435.120 FM
Saudisat 1A 02 Sep 05:49:19 05:52:11 17° 49° (NE) 05:55:02 436.775 MHz
KITSAT 1 02 Sep 06:14:29 06:19:13 16° 40° (NE) 06:23:55 435.175 FM
STRAND 1 02 Sep 06:22:03 06:27:06 66° 74° (ENE) 06:32:09 ?
AO-7 02 Sep 06:23:32 06:30:27 31° 299° (WNW) 06:37:22 29.400 - 29.500 MHz
RS-15 02 Sep 06:29:29 06:40:16 57° 111° (ESE) 06:50:48 29.354 - 29.394 USB, Beacon 29.352 USB
Hamsat 02 Sep 06:37:48 06:42:06 66° 284° (WNW) 06:46:21 145.90 MHz
JAS-2 02 Sep 07:01:57 07:07:09 53° 286° (WNW) 07:12:50 435.800 - 435.900 CW/SSB, 435.910 FM
SO-67 02 Sep 07:14:00 07:17:15 38° 98° (E) 07:20:28 435.3500 MHz FM
Saudisat 1A 02 Sep 07:27:46 07:31:59 46° 245° (WSW) 07:36:11 436.775 MHz
STRAND 1 02 Sep 08:05:07 08:06:40 11° 268° (W) 08:08:13 ?
KITSAT 1 02 Sep 08:07:58 08:16:04 73° 61° (ENE) 08:24:05 435.175 FM
ISS 02 Sep 08:17:49 08:20:49 32° 131° (SE) 08:23:50 145.800 FM
RS-15 02 Sep 08:42:54 08:52:56 39° 312° (NW) 09:02:55 29.354 - 29.394 USB, Beacon 29.352 USB
HO-68 02 Sep 08:54:43 09:01:18 38° 99° (E) 09:07:51 435.675 MHz FM
ISS 02 Sep 09:54:56 09:57:35 22° 327° (NNW) 10:00:14 145.800 FM
PANSAT 02 Sep 10:02:10 10:05:09 21° 165° (SSE) 10:08:07 not established
KITSAT 1 02 Sep 10:05:10 10:10:35 20° 257° (WSW) 10:16:00 435.175 FM
UKube-1 02 Sep 10:12:44 10:17:03 66° 285° (WNW) 10:21:20 145.840 MHz, 145.915 MHz
Oscar 11 02 Sep 10:15:47 10:20:11 87° 102° (ESE) 10:24:32 145.825 FM, Beacon 2401.500 USB
SO-50 02 Sep 10:34:40 10:37:05 14° 46° (NE) 10:39:29 436.795 FM
HO-68 02 Sep 10:42:31 10:48:51 36° 294° (WNW) 10:55:11 435.675 MHz FM
FUNcube-1 02 Sep 10:49:12 10:53:47 79° 102° (ESE) 10:58:24 145.950 - 145.970 MHz USB
RS-15 02 Sep 11:05:40 11:09:49 12° 344° (NNW) 11:14:00 29.354 - 29.394 USB, Beacon 29.352 USB
MaSat-1 02 Sep 11:28:16 11:32:22 29° 104° (ESE) 11:36:43 437.345 MHz
PANSAT 02 Sep 11:41:25 11:44:54 33° 178° (S) 11:48:24 not established
SO-50 02 Sep 12:13:20 12:18:08 74° 243° (WSW) 12:22:59 436.795 FM
UOSAT-12 02 Sep 12:18:49 12:20:29 12° 45° (NE) 12:22:09 437.025 FM, 437.400 FM
Oscar 19 02 Sep 12:35:47 12:40:14 31° 70° (ENE) 12:44:44 437.125 CW, 437.150 USB
AO-Echo 02 Sep 12:41:38 12:44:26 15° 66° (ENE) 12:47:12 ?
JAS-1B 02 Sep 13:04:16 13:13:03 40° 68° (ENE) 13:20:59 435.800 - 435.900 CW/SSB
MaSat-1 02 Sep 13:04:58 13:09:15 30° 301° (WNW) 13:13:45 437.345 MHz
Oscar 16 02 Sep 13:10:24 13:15:31 72° 75° (ENE) 13:20:42 437.025 USB, Beacon 2401.1428
ITAMSAT 1 02 Sep 13:14:53 13:19:24 31° 70° (ENE) 13:23:54 435.822 SSB
PANSAT 02 Sep 13:21:27 13:24:43 26° 191° (S) 13:27:58 not established
RS-15 02 Sep 13:23:43 13:29:25 15° 24° (NNE) 13:35:11 29.354 - 29.394 USB, Beacon 29.352 USB
Uribyol 2 02 Sep 13:23:43 13:28:31 41° 71° (ENE) 13:33:20 436.500 FM
TMSAT-1 02 Sep 13:40:58 13:44:26 18° 66° (ENE) 13:47:54 436.925 FM
AO-27 02 Sep 13:44:02 13:49:08 64° 74° (ENE) 13:54:16 436.795 MHz FM
UOSAT-12 02 Sep 13:56:32 14:01:16 85° 242° (WSW) 14:05:54 437.025 FM, 437.400 FM
Oscar 19 02 Sep 14:15:12 14:19:30 27° 264° (W) 14:23:51 437.125 CW, 437.150 USB
AO-Echo 02 Sep 14:17:53 14:22:47 51° 260° (W) 14:27:34 ?
Gurwin Techsat 1B 02 Sep 14:29:03 14:34:20 75° 75° (ENE) 14:39:38 435.225 FM
ISS 02 Sep 14:50:19 14:51:53 13° 27° (NNE) 14:53:27 145.800 FM
JAS-1B 02 Sep 14:53:54 15:03:14 48° 261° (W) 15:11:48 435.800 - 435.900 CW/SSB
Oscar 16 02 Sep 14:54:19 14:55:19 11° 269° (W) 14:56:20 437.025 USB, Beacon 2401.1428
ITAMSAT 1 02 Sep 14:54:35 14:58:50 26° 264° (W) 15:03:06 435.822 SSB
PANSAT 02 Sep 15:03:04 15:04:20 11° 202° (SSW) 15:05:35 not established
Uribyol 2 02 Sep 15:04:27 15:08:06 19° 265° (W) 15:11:46 436.500 FM
Uosat F 02 Sep 15:11:58 15:15:57 24° 68° (ENE) 15:19:56 435.120 FM
TMSAT-1 02 Sep 15:18:49 15:23:55 49° 260° (W) 15:29:02 436.925 FM
AO-7 02 Sep 15:24:58 15:32:59 54° 67° (ENE) 15:40:59 29.400 - 29.500 MHz
AO-27 02 Sep 15:26:59 15:29:01 12° 268° (W) 15:31:03 436.795 MHz FM
Sapphire 02 Sep 15:27:18 15:32:24 45° 110° (ESE) 15:37:32 437.095 MHz 1200 baud AX-25 AFSK
RS-15 02 Sep 15:34:46 15:45:27 49° 53° (NE) 15:56:29 29.354 - 29.394 USB, Beacon 29.352 USB
PCSat 02 Sep 15:56:04 16:01:28 89° 295° (WNW) 16:06:55 145.825 MHz
Gurwin Techsat 1B 02 Sep 16:13:54 16:14:46 10° 269° (W) 16:15:37 435.225 FM
ISS 02 Sep 16:25:41 16:29:01 85° 224° (SW) 16:32:20 145.800 FM
OPAL 02 Sep 16:47:18 16:52:24 53° 102° (ESE) 16:57:27 ?
Uosat F 02 Sep 16:50:06 16:54:32 32° 262° (W) 16:59:00 435.120 FM
JAS-2 02 Sep 17:10:38 17:16:19 41° 72° (ENE) 17:21:27 435.800 - 435.900 CW/SSB, 435.910 FM
Sapphire 02 Sep 17:11:49 17:16:00 22° 307° (NW) 17:20:12 437.095 MHz 1200 baud AX-25 AFSK
AO-7 02 Sep 17:18:58 17:25:57 30° 263° (W) 17:32:59 29.400 - 29.500 MHz
Hamsat 02 Sep 17:27:19 17:31:31 54° 75° (ENE) 17:35:46 145.90 MHz
PCSat 02 Sep 17:43:30 17:45:38 12° 313° (NW) 17:47:46 145.825 MHz
RS-15 02 Sep 17:47:21 17:57:38 45° 252° (WSW) 18:08:23 29.354 - 29.394 USB, Beacon 29.352 USB
OPAL 02 Sep 18:27:31 18:30:48 17° 297° (WNW) 18:34:04 ?
STRAND 1 02 Sep 18:36:40 18:41:07 30° 97° (E) 18:45:32 ?
JAS-2 02 Sep 18:56:44 19:01:26 23° 263° (W) 19:05:48 435.800 - 435.900 CW/SSB, 435.910 FM
Hamsat 02 Sep 19:07:19 19:07:46 10° 269° (W) 19:08:13 145.90 MHz
SO-67 02 Sep 19:16:11 19:19:31 46° 261° (W) 19:22:52 435.3500 MHz FM
HO-68 02 Sep 19:21:10 19:26:08 21° 61° (ENE) 19:31:05 435.675 MHz FM
STRAND 1 02 Sep 20:15:55 20:20:10 27° 291° (WNW) 20:24:24 ?
KITSAT 1 02 Sep 20:42:25 20:45:33 13° 100° (E) 20:48:40 435.175 FM
UKube-1 02 Sep 21:04:33 21:08:51 67° 75° (ENE) 21:13:10 145.840 MHz, 145.915 MHz
HO-68 02 Sep 21:06:03 21:13:08 68° 257° (WSW) 21:20:16 435.675 MHz FM
Oscar 11 02 Sep 21:07:20 21:11:25 42° 73° (ENE) 21:15:32 145.825 FM, Beacon 2401.500 USB
MaSat-1 02 Sep 21:26:04 21:29:45 26° 58° (ENE) 21:33:00 437.345 MHz
Saudisat 1A 02 Sep 21:30:30 21:34:53 78° 299° (WNW) 21:39:19 436.775 MHz
FUNcube-1 02 Sep 21:42:32 21:46:24 38° 73° (ENE) 21:50:22 145.950 - 145.970 MHz USB
KITSAT 1 02 Sep 22:31:37 22:39:42 83° 115° (ESE) 22:47:49 435.175 FM
Oscar 11 02 Sep 22:45:38 22:47:46 13° 267° (W) 22:49:55 145.825 FM, Beacon 2401.500 USB
MaSat-1 02 Sep 23:03:29 23:06:26 19° 259° (WSW) 23:09:07 437.345 MHz
FUNcube-1 02 Sep 23:20:48 23:22:58 14° 267° (W) 23:25:09 145.950 - 145.970 MHz USB
Sapphire 03 Sep 00:19:34 00:23:21 19° 52° (NE) 00:27:08 437.095 MHz 1200 baud AX-25 AFSK
KITSAT 1 03 Sep 00:30:03 00:36:00 22° 315° (NW) 00:42:00 435.175 FM
PCSat 03 Sep 00:47:52 00:52:48 35° 57° (ENE) 00:57:42 145.825 MHz
Oscar 19 03 Sep 00:52:17 00:54:56 14° 92° (E) 00:57:35 437.125 CW, 437.150 USB
Oscar 16 03 Sep 01:26:05 01:30:47 34° 98° (E) 01:35:26 437.025 USB, Beacon 2401.1428
ITAMSAT 1 03 Sep 01:32:30 01:35:20 15° 93° (E) 01:38:09 435.822 SSB
